Location: Blanot
(47.1713°N, 4.2340°E)
Time: 21:05:31
(UTC+00:00)

Cosmos 1933 Rocket - Pass Details

Date: 14 July 2020
Orbit: 608 x 629 km, 82.5° (Epoch: 14 August)

Event Time Altitude Azimuth Distance (km) Brightness Sun altitude
Exits shadow 00:23:24 39° 131° (SE) 924 4.1 -20.8°
Maximum altitude 00:24:23 46° 93° (E) 823 4.2 -20.7°
Drops below altitude 10° 00:28:33 10° 21° (NNE) 1,973 7.3 -20.6°
Sets 00:30:51 0° 15° (NNE) 2,884 8.6 -20.6°
